[[{"header":{"parameterUnit":"m.s-1","parameterCategory":1,"la1":30.2991,"la2":30.254,"lo1":-89.0895,"lo2":-89.0444,"dy":0.0017,"dx":0.0017,"nx":28,"ny":28,"refTime":"2024-04-05T03:00:00:Z","depth":0,"parameterNumber":2,"parameterNumberName":"U-component_of_WINDS"},"data":[0,0,0,0,0,0,0,0,0,0,0,0,0,0,0,0,0,0,0,0,0,0,0,0,0,0,0,0,0,0,0,0,0,0,0,0,0,0,0,0,0,0,0,0,0,0,0,0,0,0,0,0,0,0,0,0,0,0,-1.3214,-1.3214,0,-1.3166,-1.3165,-1.3165,-1.3093,-1.3092,-1.3091,-1.309,-1.3041,-1.304,-1.304,0,0,0,0,0,0,0,0,0,0,0,0,0,-1.3245,-1.3245,-1.3214,-1.3214,-1.3213,-1.3166,-1.3165,-1.3165,-1.3094,-1.3092,-1.309,-1.3089,-1.3041,-1.304,-1.304,0,0,0,0,0,0,0,0,0,0,0,0,0,-1.3218,-1.3245,-1.3215,-1.3172,-1.3168,-1.3166,-1.3165,-1.3165,-1.3094,-1.3092,-1.309,-1.3088,-1.3041,-1.304,-1.304,-1.3077,0,0,-1.304,-1.304,0,0,0,0,0,0,0,0,-1.322,-1.3217,-1.3179,-1.3175,-1.317,-1.3134,-1.3158,-1.3135,-1.3094,-1.3122,-1.309,-1.3087,-1.3073,-1.307,-1.3065,-1.3074,-1.3072,-1.304,-1.3039,-1.3039,-1.3039,0,0,0,0,0,0,0,-1.3222,-1.3219,-1.3195,-1.3178,-1.3173,-1.3155,-1.3149,-1.3154,-1.3109,-1.3119,-1.3114,-1.3109,-1.307,-1.3066,-1.3064,-1.3072,-1.304,-1.3039,-1.3039,-1.3039,-1.3108,-1.311,0,0,0,0,0,0,-1.323,-1.3221,-1.3197,-1.3194,-1.3191,-1.3156,-1.315,-1.3147,-1.3108,-1.3101,-1.3111,-1.3106,-1.3067,-1.3064,-1.3062,-1.3102,-1.3039,-1.3039,-1.3039,-1.3106,-1.3109,-1.3111,0,0,0,0,0,0,-1.3231,-1.3228,-1.3199,-1.3206,-1.3201,-1.3158,-1.3156,-1.3147,-1.3142,-1.3102,-1.3094,-1.3114,-1.3065,-1.3062,-1.3073,-1.3099,-1.3039,-1.3039,-1.3104,-1.3107,-1.311,-1.3182,0,0,0,0,0,0,-1.3232,-1.3229,-1.3243,-1.3207,-1.3201,-1.3212,-1.3157,-1.3148,-1.3142,-1.3136,-1.3103,-1.3096,-1.3063,-1.3074,-1.3073,-1.3098,-1.3039,-1.3101,-1.3105,-1.3109,-1.3178,-1.3187,-1.3196,0,0,0,0,0,-1.3233,-1.3265,-1.3244,-1.3241,-1.3216,-1.3213,-1.321,-1.3172,-1.3145,-1.3158,-1.3132,-1.3097,-1.3096,-1.3076,-1.3074,-1.3099,-1.31,-1.3104,-1.3108,-1.3173,-1.3185,-1.3196,0,0,0,0,0,0,-1.3305,-1.326,-1.3235,-1.3256,-1.3239,-1.3201,-1.3217,-1.3186,-1.3176,-1.317,-1.3124,-1.3117,-1.3135,-1.3118,-1.3096,-1.3132,-1.3093,-1.3097,-1.3143,-1.3154,-1.3163,-1.3167,-1.3039,0,0,0,0,0,-1.3324,-1.3325,-1.3285,-1.3307,-1.33,-1.326,-1.3257,-1.3229,-1.321,-1.3202,-1.3177,-1.316,-1.3155,-1.3153,-1.3147,-1.3175,-1.3167,-1.3191,-1.32,-1.3208,-1.3212,-1.3225,-1.3236,-1.3125,-1.3125,-1.3125,0,0,-1.3362,-1.3337,-1.334,-1.3321,-1.3304,-1.3307,-1.3254,-1.3259,-1.326,-1.3203,-1.3212,-1.3193,-1.3171,-1.319,-1.3198,-1.3177,-1.3241,-1.3213,-1.322,-1.322,-1.3231,-1.3241,-1.3251,-1.3128,-1.3128,-1.3127,0,0,-1.3432,-1.3413,-1.343,-1.3414,-1.339,-1.3363,-1.3367,-1.3334,-1.3319,-1.3327,-1.3284,-1.3285,-1.3279,-1.3264,-1.3256,-1.3321,-1.3289,-1.332,-1.3369,-1.3382,-1.3391,-1.3398,-1.3421,-1.343,-1.3325,-1.3325,-1.3325,0,-1.3482,-1.3484,-1.3442,-1.345,-1.3442,-1.339,-1.3407,-1.3394,-1.3369,-1.3365,-1.3342,-1.3333,-1.3314,-1.333,-1.3346,-1.3341,-1.3344,-1.3324,-1.3393,-1.34,-1.3406,-1.3428,-1.3437,-1.3329,-1.3329,-1.3328,-1.3328,0,-1.3547,-1.3549,-1.3565,-1.3542,-1.3537,-1.3549,-1.3509,-1.3509,-1.3481,-1.3457,-1.3467,-1.3442,-1.343,-1.3431,-1.3405,-1.3443,-1.3431,-1.3401,-1.3361,-1.3421,-1.3441,-1.3449,-1.3335,-1.3333,-1.3332,-1.3331,0,0,-1.3662,-1.3615,-1.3622,-1.3611,-1.358,-1.358,-1.359,-1.3578,-1.3579,-1.3563,-1.357,-1.3566,-1.3538,-1.3529,-1.35,-1.3512,-1.3565,-1.348,-1.3479,-1.3497,-1.3606,-1.3629,-1.3639,-1.3543,-1.3544,-1.3545,-1.3607,0,-1.3726,-1.374,-1.3702,-1.3725,-1.3727,-1.3677,-1.3685,-1.3667,-1.3645,-1.3643,-1.3618,-1.3616,-1.3579,-1.3573,-1.3582,-1.3556,-1.3586,-1.3551,-1.3549,-1.3549,-1.3557,-1.3649,-1.3673,-1.3733,-1.3615,-1.3616,-1.3617,0,-1.3803,-1.3791,-1.3814,-1.3782,-1.3781,-1.3789,-1.3775,-1.3773,-1.3752,-1.3735,-1.3725,-1.3691,-1.3698,-1.3659,-1.3669,-1.3646,-1.3643,-1.363,-1.3631,-1.363,-1.3587,-1.365,-1.3751,-1.376,-1.3629,-1.3628,-1.3627,0,-1.3885,-1.3874,-1.3887,-1.3879,-1.3841,-1.3848,-1.3833,-1.3809,-1.3805,-1.3792,-1.3789,-1.3778,-1.3772,-1.3764,-1.3728,-1.3703,-1.3742,-1.37,-1.3728,-1.3729,-1.3739,-1.3738,-1.3841,-1.3736,-1.3736,-1.3736,-1.3736,0,-1.3961,-1.3977,-1.3923,-1.3931,-1.3947,-1.3904,-1.3922,-1.3902,-1.3881,-1.3884,-1.3841,-1.3845,-1.3797,-1.3796,-1.3768,-1.378,-1.3778,-1.3764,-1.3756,-1.3768,-1.377,-1.3765,-1.376,-1.3738,-1.3738,-1.3737,-1.3737,0,-1.4055,-1.4019,-1.403,-1.3993,-1.3984,-1.3998,-1.3967,-1.3972,-1.3947,-1.3951,-1.395,-1.391,-1.3906,-1.387,-1.3858,-1.3839,-1.3862,-1.3846,-1.3869,-1.3864,-1.3894,-1.3892,-1.3998,-1.4009,-1.3898,-1.3899,-1.39,0,-1.4106,-1.4117,-1.4081,-1.408,-1.4067,-1.4065,-1.406,-1.4018,-1.4014,-1.3991,-1.3999,-1.3992,-1.3983,-1.3979,-1.395,-1.394,-1.3924,-1.3962,-1.3922,-1.3934,-1.3925,-1.3925,-1.3926,-1.397,-1.3972,-1.3973,-1.3974,0,-1.42,-1.4182,-1.4176,-1.4164,-1.4159,-1.4147,-1.4133,-1.4134,-1.4088,-1.4086,-1.4081,-1.4075,-1.4063,-1.4056,-1.4041,-1.4025,-1.3992,-1.3986,-1.3992,-1.4004,-1.4017,-1.4011,-1.3892,-1.3984,-1.3983,-1.3982,-1.3982,-1.3981,-1.4274,-1.4282,-1.4258,-1.4253,-1.4237,-1.4225,-1.4229,-1.4203,-1.4199,-1.4185,-1.4161,-1.416,-1.4137,-1.4114,-1.4101,-1.41,-1.408,-1.4089,-1.4091,-1.4094,-1.41,-1.4017,-1.4097,-1.4097,-1.4096,-1.4096,-1.4096,0,-1.4366,-1.4348,-1.4344,-1.4325,-1.4321,-1.429,-1.4272,-1.4271,-1.4271,-1.4253,-1.4245,-1.424,-1.4233,-1.4202,-1.4192,-1.4197,-1.4182,-1.4196,-1.4195,-1.4192,-1.4118,-1.4114,-1.4208,-1.4208,-1.4208,-1.4208,-1.4208,-1.4208,-1.4414,-1.4425,-1.4404,-1.4408,-1.4389,-1.4388,-1.438,-1.4369,-1.4354,-1.435,-1.4344,-1.4324,-1.4301,-1.4289,-1.4281,-1.4272,-1.427,-1.429,-1.4276,-1.4208,-1.4197,-1.4187,-1.4183,-1.429,-1.429,-1.435,-1.435,-1.4351]},{"header":{"parameterUnit":"m.s-1","parameterCategory":1,"la1":30.2991,"la2":30.254,"lo1":-89.0895,"lo2":-89.0444,"dy":0.0017,"dx":0.0017,"nx":28,"ny":28,"refTime":"2024-04-05T03:00:00:Z","depth":0,"parameterNumber":3,"parameterNumberName":"V-component_of_WINDS"},"data":[0,0,0,0,0,0,0,0,0,0,0,0,0,0,0,0,0,0,0,0,0,0,0,0,0,0,0,0,0,0,0,0,0,0,0,0,0,0,0,0,0,0,0,0,0,0,0,0,0,0,0,0,0,0,0,0,0,0,3.4149,3.4149,0,3.4171,3.4171,3.4171,3.4119,3.4117,3.4115,3.4114,3.4134,3.4136,3.4138,0,0,0,0,0,0,0,0,0,0,0,0,0,3.4057,3.4059,3.4148,3.4149,3.4149,3.4171,3.4171,3.4171,3.4119,3.4117,3.4115,3.4113,3.4133,3.4136,3.4138,0,0,0,0,0,0,0,0,0,0,0,0,0,3.409,3.406,3.4148,3.4126,3.4124,3.4171,3.4171,3.4172,3.4119,3.4117,3.4114,3.4112,3.4133,3.4136,3.4139,3.4208,0,0,3.4148,3.415,0,0,0,0,0,0,0,0,3.4088,3.4093,3.4129,3.4127,3.4125,3.4139,3.4146,3.4184,3.412,3.4121,3.4114,3.4111,3.4138,3.414,3.415,3.4209,3.421,3.4149,3.4151,3.4152,3.4153,0,0,0,0,0,0,0,3.4086,3.4092,3.4157,3.4129,3.4127,3.4113,3.4115,3.4153,3.4143,3.4121,3.4117,3.412,3.4136,3.4147,3.415,3.421,3.4149,3.4151,3.4153,3.4155,3.4326,3.4329,0,0,0,0,0,0,3.4087,3.409,3.4156,3.4158,3.41,3.4117,3.4119,3.4137,3.4142,3.4141,3.4122,3.4118,3.4143,3.4146,3.4151,3.4231,3.4152,3.4155,3.4157,3.4324,3.4327,3.433,0,0,0,0,0,0,3.4085,3.4093,3.4156,3.4123,3.413,3.4121,3.4142,3.4139,3.415,3.4144,3.4142,3.4135,3.4141,3.4146,3.4194,3.4231,3.4156,3.4159,3.432,3.4325,3.4328,3.4393,0,0,0,0,0,0,3.4083,3.4093,3.412,3.4124,3.4132,3.42,3.4145,3.4141,3.4156,3.415,3.4155,3.4154,3.4139,3.419,3.4197,3.4234,3.4162,3.4317,3.4322,3.4327,3.4388,3.4399,3.4408,0,0,0,0,0,3.408,3.4137,3.4122,3.413,3.4166,3.4202,3.4206,3.4189,3.4159,3.4185,3.4181,3.4154,3.4226,3.4195,3.4203,3.4241,3.4315,3.4321,3.4327,3.4383,3.4397,3.4408,0,0,0,0,0,0,3.4137,3.4137,3.412,3.4181,3.4192,3.4193,3.4226,3.4205,3.4224,3.4217,3.4195,3.4196,3.4248,3.425,3.4215,3.4308,3.4265,3.4273,3.4305,3.4318,3.4328,3.4326,3.4164,0,0,0,0,0,3.4157,3.4187,3.4186,3.424,3.4246,3.4236,3.4251,3.4237,3.4247,3.4251,3.425,3.426,3.4285,3.4302,3.4324,3.4388,3.4387,3.4418,3.4428,3.4437,3.4444,3.4476,3.4489,3.4349,3.4349,3.4349,0,0,3.4198,3.4202,3.4223,3.4251,3.4258,3.4289,3.424,3.4275,3.4297,3.4256,3.4301,3.4301,3.4311,3.4366,3.4391,3.4369,3.4482,3.4445,3.4452,3.4453,3.4483,3.4496,3.4508,3.4353,3.4353,3.4352,0,0,3.4288,3.4295,3.434,3.4348,3.4359,3.4352,3.4362,3.4367,3.4365,3.4411,3.438,3.4406,3.4449,3.4457,3.4467,3.4559,3.4534,3.4567,3.4621,3.4653,3.4664,3.4673,3.4705,3.4716,3.4574,3.4575,3.4575,0,3.4338,3.4384,3.4366,3.4402,3.4415,3.438,3.4425,3.4433,3.4451,3.446,3.4436,3.4489,3.4493,3.4549,3.4572,3.4581,3.4592,3.4566,3.4664,3.4673,3.4682,3.4711,3.4723,3.4578,3.4578,3.4578,3.4577,0,3.4443,3.4475,3.451,3.4528,3.4545,3.4586,3.4572,3.4592,3.4576,3.4571,3.4616,3.462,3.4642,3.4655,3.464,3.4709,3.4695,3.4668,3.4624,3.4699,3.4726,3.4738,3.4584,3.4583,3.4581,3.458,0,0,3.4569,3.4577,3.459,3.4597,3.4607,3.4631,3.4669,3.4691,3.4707,3.4721,3.4751,3.4789,3.4764,3.4775,3.476,3.4788,3.4859,3.4757,3.4757,3.4775,3.4933,3.4952,3.4966,3.4843,3.4845,3.4847,3.4932,0,3.4657,3.4724,3.4708,3.4773,3.4802,3.4769,3.4802,3.4811,3.4807,3.483,3.4825,3.4851,3.4817,3.4823,3.485,3.4845,3.489,3.4839,3.487,3.4871,3.4867,3.498,3.5001,3.5081,3.4943,3.4944,3.4946,0,3.4768,3.4786,3.4854,3.4858,3.4869,3.49,3.4918,3.4941,3.495,3.4945,3.4957,3.4937,3.4973,3.4931,3.498,3.4945,3.4957,3.4957,3.4959,3.496,3.4912,3.4983,3.5106,3.5117,3.4963,3.4961,3.496,0,3.4851,3.4893,3.4938,3.4946,3.4952,3.4973,3.4977,3.4983,3.4997,3.5013,3.5022,3.5042,3.5052,3.5068,3.5053,3.5024,3.5104,3.506,3.51,3.51,3.5117,3.5116,3.5242,3.5128,3.5127,3.5127,3.5127,0,3.495,3.4993,3.4975,3.5003,3.5049,3.5031,3.5077,3.5076,3.5082,3.5109,3.5082,3.5107,3.5087,3.511,3.5099,3.514,3.5146,3.5142,3.5138,3.5143,3.5143,3.5149,3.5143,3.513,3.513,3.5129,3.5128,0,3.505,3.5041,3.5088,3.509,3.5091,3.5125,3.5126,3.5151,3.5145,3.5179,3.5186,3.5176,3.5202,3.5189,3.5216,3.5208,3.5262,3.5251,3.5259,3.5255,3.5295,3.529,3.5428,3.5444,3.5321,3.5322,3.5323,0,3.5113,3.5145,3.515,3.5166,3.5171,3.5198,3.5212,3.5195,3.521,3.5222,3.5246,3.5269,3.5287,3.5329,3.5324,3.5344,3.5333,3.538,3.5336,3.5339,3.5331,3.5329,3.5331,3.5388,3.5389,3.5391,3.5392,0,3.5225,3.5219,3.524,3.526,3.5278,3.5293,3.5305,3.5319,3.5302,3.5321,3.5347,3.5361,3.5388,3.5411,3.5428,3.5431,3.5408,3.5406,3.5416,3.542,3.5423,3.542,3.5281,3.5402,3.5401,3.54,3.54,3.5399,3.5307,3.5333,3.5341,3.5365,3.5373,3.5385,3.5408,3.5405,3.5427,3.5448,3.5437,3.5467,3.5474,3.5495,3.55,3.5523,3.5504,3.5519,3.5522,3.5525,3.553,3.5421,3.5526,3.5526,3.5525,3.5525,3.5525,0,3.5416,3.5419,3.5442,3.546,3.5479,3.5457,3.547,3.5487,3.5514,3.5522,3.554,3.557,3.5592,3.5589,3.5609,3.5627,3.5617,3.5633,3.563,3.5631,3.5546,3.5535,3.5641,3.5641,3.5641,3.5641,3.564,3.564,3.5475,3.5517,3.5512,3.5557,3.556,3.559,3.5598,3.5609,3.5615,3.5649,3.5668,3.5666,3.5669,3.5689,3.5708,3.5707,3.5714,3.5734,3.5728,3.5649,3.5637,3.5626,3.5615,3.5736,3.5736,3.5811,3.5811,3.5812]}]]